STARLINK-33702, 63591

Orbit data source: Space-Track

STARLINK-33702, 63591 is a payload satellite owned by SpaceX/Seattle (US) in LEO that was launched on Mon, 14 Apr 2025 UTC via an FALCON 9 launch vehicle from the Air Force Eastern Test Range (AFETR). Payload-class satellites include a variety of spacecraft equipped with specific instruments for various scientific and technological missions. These include communications satellites like Starlink; space stations such as the ISS; scientific satellites like the Hubble; Earth observation satellites from companies like Planet Labs, Umbra, and HawkEye 360; GPS; miniature CubeSats for education and research; and military/defense satellites.

Loading next visibility...
Identifier
63591, 2025-076Y
Orbit
LEO
Country
Flag of USUS
Related business
Manufacturer
SpaceX/Seattle
Mission
Operational Commercial Communications
Bus & Motor
STARLINK V2MO, Unknown motor
Mass
575 kg wet, ~530 kg dry
Launch date (UTC)
2025-04-14 (1 year ago)
Launch vehicle
FALCON 9
Launch site
Air Force Eastern Test Range (AFETR)
Object type
Payload
Rocket body
Debris
Shape & HBR
Box + 2 Pan, 17.7 m
Radar Cross Section
36.964 m², Large (>1 m²)

Expand to show TLE details & history
Last TLE update: 22 hours ago

TLE from 22 hours ago
0 STARLINK-33702
1 63591U 25076Y   26149.57557292  .00021624  00000-0  79236-3 0  9993
2 63591  43.0020 224.6483 0002176 282.1603  77.9005 15.27606717 64204
Epoch: 2026-05-29T13:48Z
TLE epoch observation values (Epoch: 2026-05-29T13:48:49.500Z)
Latitude
-0°
Longitude
130.33807°
Altitude
482.432 km
Speed
7.626 km/s
True Right ascension
14h 58m 35s
True Declination
0° 00' 00"
Sunlit
Object was in full shadow at epoch
Visualization orbit readout
Latitude
Unknown
Longitude
Unknown
Altitude
Unknown
Speed
Unknown
Apparent Right ascension
Unknown
Apparent Declination
Unknown
Sunlit
N/A
Visualization observer readout
Local Sidereal Time
21:48:52
Azimuth
Unknown
Elevation
Unknown
Doppler factor
Unknown
Orbital elements
Apogee altitude
486.407 km
Perigee altitude
483.421 km
Semi-major axis
6,863.051 km
Eccentricity
0.00022
Inclination
43.002°
RAAN
224.6483°
Arg. of periapsis
282.1603°
True anomaly
77.92488°
Mean anomaly
77.9005°
Eccentric anomaly
77.91269°
Mean motion
3.8174 °/min
Orbital period
94.31 mins
BSTAR
0.00079236
Loading maneuver chart data...
Computing Atmospheric mass density...
Loading historical data...
Loading historical data...
Loading historical data...
Loading historical data...
Loading historical data...
Loading historical data...
Loading historical data...

Documentation

Showing up to 5 results
|